This is the latest recevied weather packets stored in our database for station/object WA1TYB-13. If no packets are shown the sender has not sent any weather packets the latest 10 day(s).
| Time | Temp. | Humidity | Pressure | Rain* | Wind** | Luminosity | Snow |
|---|---|---|---|---|---|---|---|
| 1788583309 | 14.44° C | 63% | 1018.2 hPa | 0 mm | - | 0 W/m² | - |
| 1788583008 | 14.44° C | 63% | 1017.6 hPa | 0 mm | - | 0 W/m² | - |
| 1788582704 | 13.89° C | 64% | 1017.6 hPa | 0 mm | - | 0 W/m² | - |
| 1788582403 | 14.44° C | 63% | 1017.7 hPa | 0 mm | - | 0 W/m² | - |
| 1788582097 | 15° C | 62% | 1017.4 hPa | 0 mm | - | 0 W/m² | - |
| 1788581823 | 15.56° C | 60% | 1017.4 hPa | 0 mm | - | 0 W/m² | - |
| 1788581488 | 15.56° C | 60% | 1017.4 hPa | 0 mm | - | 0 W/m² | - |
| 1788581183 | 15.56° C | 60% | 1017.4 hPa | 0 mm | - | 0 W/m² | - |
| 1788580881 | 16.11° C | 56% | 1017.1 hPa | 0 mm | - | 0 W/m² | - |
| 1788580577 | 16.11° C | 54% | 1017.2 hPa | 0 mm | - | 0 W/m² | - |
| 1788580273 | 16.11° C | 53% | 1017.2 hPa | 0 mm | - | 0 W/m² | - |
| 1788579969 | 16.67° C | 52% | 1017.1 hPa | 0 mm | - | 0 W/m² | - |
| 1788579663 | 16.67° C | 51% | 1017.4 hPa | 0 mm | - | 0 W/m² | - |
| 1788579362 | 17.22° C | 49% | 1017.2 hPa | 0 mm | - | 0 W/m² | - |
| 1788579058 | 17.22° C | 48% | 1016.9 hPa | 0 mm | - | 0 W/m² | - |
| 1788578758 | 17.22° C | 48% | 1017.5 hPa | 0 mm | - | 0 W/m² | - |
| 1788578453 | 17.22° C | 49% | 1017.1 hPa | 0 mm | - | 0 W/m² | - |
| 1788578149 | 17.22° C | 49% | 1017 hPa | 0 mm | - | 0 W/m² | - |
| 1788577848 | 17.22° C | 49% | 1016.8 hPa | 0 mm | - | 0 W/m² | - |
| 1788577544 | 17.22° C | 49% | 1016.7 hPa | 0 mm | - | 0 W/m² | - |
| 1788577244 | 17.22° C | 49% | 1016.6 hPa | 0 mm | - | 0 W/m² | - |
| 1788576939 | 17.22° C | 49% | 1016.8 hPa | 0 mm | - | 0 W/m² | - |
| 1788576635 | 17.22° C | 50% | 1016.5 hPa | 0 mm | - | 0 W/m² | - |
| 1788576330 | 17.22° C | 49% | 1016.1 hPa | 0 mm | - | 0 W/m² | - |
| 1788576026 | 17.22° C | 49% | 1016.1 hPa | 0 mm | - | 0 W/m² | - |
* Rain latest hour (hover to see other rain measurements)
** Current wind speed in m/s (hover to see current wind gust speed)